Regional Weather Roundup
Issued by NWS New Orleans/Baton Rouge, LA

Home | Current Version | Previous Version | Text Only | Print | Product List | Glossary On
Versions: 1 2 3 4 5 6 7 8 9 10 11 12 13 14 15 16 17 18 19 20 21 22 23 24 25 26 27 28 29 30 31 32 33 34 35 36 37 38 39 40 41 42 43 44 45 46 47 48 49 50
000
ASUS44 KLIX 240713
RWRLIX
NEW ORLEANS REGIONAL WEATHER ROUNDUP
NATIONAL WEATHER SERVICE NEW ORLEANS LA
200 AM CDT FRI MAR 24 2017

NOTE: "FAIR" INDICATES FEW OR NO CLOUDS BELOW 12,000 FEET WITH NO
      SIGNIFICANT WEATHER AND/OR OBSTRUCTIONS TO VISIBILITY.
      SKY/WX - SKY CONDITION AND SIGNIFICANT WEATHER.
      TMP - AIR TEMPERATURE.     DP    - DEWPOINT TEMPERATURE.
      RH  - RELATIVE HUMIDITY.   PRES  - PRESSURE.
      HI  - HEAT INDEX.          WCI   - WIND CHILL INDEX.

*  THESE STATIONS ARE NOT NWS OR FAA STATIONS AND ARE NOT UNDER
   NWS QUALITY CONTROL.

LAZ038-040-048-061>063-065>067-069-240800-
SOUTHEAST LOUISIANA

CITY           SKY/WX    TMP DP  RH WIND       PRES   REMARKS
N.O. INTL ARPT CLEAR     69  66  90 SE10      30.18F
N.O. LAKEFRONT PTCLDY    71  67  87 SE15      30.19F
N.O. DOWNTOWN*   N/A     71  67  87 VRB3      30.19F
RESERVE*       PTSUNNY   69  67  93 SE5       30.18S
SLIDELL        CLOUDY    71  67  87 SE9       30.19F
BATON ROUGE    MOCLDY    69  66  90 SE8       30.16S
BOOTHVILLE     CLEAR     68  67  96 SE8       30.22S
BELLE CHASSE   PTCLDY   N/A N/A N/A SE10      30.18F
BOGALUSA*      CLOUDY    71  64  79 SE7       30.22S
GALLIANO*      PTSUNNY   71  65  82 SE10G16   30.18F
NEW ROADS*     CLOUDY    68  65  89 SE12      30.14F
GONZALES*        N/A     69  67  92 SE3       30.16F
HAMMOND*       MOCLDY    70  64  83 SE9       30.18S
HOUMA*         PTCLDY    67  65  93 SE7       30.17F
PORT FOURCHON* PTSUNNY   72  66  83 SE16G22   30.18F

$$

MSZ070-080>082-240800-
SOUTHERN MISSISSIPPI

CITY           SKY/WX    TMP DP  RH WIND       PRES   REMARKS
MCCOMB         CLOUDY    67  62  84 SE8       30.19F
GULFPORT       CLOUDY    70  67  90 SE16      30.22F
BILOXI         MOCLDY    70  66  88 SE13G22   30.23S
PASCAGOULA     CLOUDY    69  64  84 SE12      30.24F

$$

COASTAL OBSERVATIONS
LAKE AND NEARSHORE STATIONS

STATION/POSITION TIME  TEMP    WIND        PRES    WAVE
                       AIR SEA DIR/SP/G            HT/PER
                 (UTC) (F)     (DEG/KT/KT) (MB)    (FT/S)
PASCAGOULA       0648   69     130/ 10/ 14 1023.6
WAVELAND YACHT   0636   70 71  140/ 15/ 19 1023.0
GRAND ISLE       0648   71 72  150/ 10/ 16 1022.2
SOUTHWEST PASS   0648          130/ 15/ 19   N/A
NEW CANAL        0648   70 73  150/  5/ 10 1022.0
SHELL BEACH      0636   71 75  130/ 15/ 19 1022.8

OFFSHORE STATIONS

STATION/POSITION TIME  TEMP    WIND        PRES    WAVE
                       AIR SEA DIR/SP/G            HT/PER
                 (UTC) (F)     (DEG/KT/KT) (MB)    (FT/S)
64 S DAUPHIN ISL 0650   72 72  130/ 19/ 23 1023.5    5/ 7

$$




USA.gov is the U.S. government's official web portal to all federal, state and local government web resources and services.